Location: Beneden-Haastrecht
(52.0012°N, 4.7557°E)
Time: 10:59:48
(UTC+00:00)

COSMOS 2455 - Pass Details

Date: 24 October 2020
Orbit: 899 x 911 km, 67.1° (Epoch: 24 November)

Event Time Altitude Azimuth Distance (km) Brightness Sun altitude
Rises 19:35:56 0° 313° (NW) 3,551 6.9 -29.4°
Reaches altitude 10° 19:39:01 10° 327° (NNW) 2,609 5.8 -29.8°
Enters shadow 19:43:38 23° 17° (NNE) 1,829 4.4 -30.5°
